User: anonymous   Login
Location: Unspecified
(0.0000°N, 0.0000°E)
Time: 04:07:48
(UTC+00:00)
Language:

SBIRS GEO 1 (USA 230) - Orbit

View from above orbital plane
View from above orbital plane
View from above satellite
View from above satellite

Ground track
Ground track

The orbit data is extracted from the following two-line orbital elements,

1 37481U 11019A   18068.23499139 0.00000000  00000-0  00000-0 0    01
2 37481   3.1829 324.3286 0003047 264.7663  95.2060  1.00270000    06
Epoch (UTC): 09 March 2018 05:38:23
Eccentricity: 0.0003047
inclination: 3.1829°
perigee height: 35774 km
apogee height: 35799 km
right ascension of ascending node: 324.3286°
argument of perigee: 264.7663°
revolutions per day: 1.00270000
mean anomaly at epoch: 95.2060°
orbit number at epoch: 0

The dashed part of the orbit path shows where the satellite is in the earth's shadow,  

DLR